Albion, NE

4:48 AM CDT on August 30, 2016 (GMT -0500)
Albion Municipal

Weather History for KBVN - March, 2013

Change the Weather History Date:

Friday, March 8, 2013

  Actual Average (KOFK) Record (KOFK)
Temperature  
Mean Temperature 40 °F 34 °F  
Max Temperature 53 °F 45 °F 73 °F (1977)
Min Temperature 27 °F 24 °F -8 °F (1995)
Degree Days  
Heating Degree Days 25 31  
Month to date heating degree days 258  
Since 1 July heating degree days 5351  
Cooling Degree Days 0 0  
Month to date cooling degree days 0  
Year to date cooling degree days 0  
Moisture  
Dew Point 32 °F    
Average Humidity 72    
Maximum Humidity 89    
Minimum Humidity 47    
Precipitation  
Precipitation 0.00 in 0.05 in 1.03 in (1893)
Month to date precipitation 0.32  
Year to date precipitation 1.67  
Snow  
Snow 0.00 in 0.10 in - ()
Month to date snowfall 1.4  
Since 1 July snowfall 24.2  
Snow Depth -    
Sea Level Pressure  
Sea Level Pressure 30.00 in    
Wind  
Wind Speed 7 mph (ESE)    
Max Wind Speed 18 mph    
Max Gust Speed 24 mph    
Visibility 8 miles    
Events Rain , Thunderstorm    
T = Trace of Precipitation, MM = Missing Value Source: NWS Daily Summary

Daily Weather History Graph

Daily Weather History Graph

Search for Another Location

Airport or City:

Trip Planner

Search our weather history database for the weather conditions in past years. The results will help you decide how hot, cold, wet, or windy it might be!

Date:

Astronomy

Mar. 08, 2013 Rise Set
Actual Time 6:55 AM CST 6:31 PM CST
Civil Twilight 6:27 AM CST 6:58 PM CST
Nautical Twilight 5:55 AM CST 7:31 PM CST
Astronomical Twilight 5:23 AM CST 8:03 PM CST
Moon 4:42 AM CST (3/8) 3:25 PM CST (3/8)
Length of Visible Light 12h 31m
Length of Day
11h 35m
Waning Crescent, 11% of the Moon is Illuminated
Mar 8
Waning Crescent
Mar 11
New
Mar 19
First Quarter
Mar 27
Full
Apr 2
Last Quarter

Hourly Weather History & Observations

Time (CST) Temp. Windchill Dew Point Humidity Pressure Visibility Wind Dir Wind Speed Gust Speed Precip Events Conditions
12:15 AM 34.2 °F 28.2 °F 27.7 °F 77% 30.11 in 7.0 mi ESE 6.9 mph - N/A   Clear
12:35 AM 33.3 °F 27.9 °F 27.5 °F 79% 30.11 in 7.0 mi ESE 5.8 mph - N/A   Clear
12:55 AM 33.4 °F 27.3 °F 27.5 °F 79% 30.12 in 7.0 mi ESE 6.9 mph - N/A   Clear
1:15 AM 32.9 °F 27.5 °F 27.3 °F 80% 30.12 in 7.0 mi ESE 5.8 mph - N/A   Clear
1:35 AM 30.7 °F - 26.1 °F 83% 30.12 in 7.0 mi Calm Calm - N/A   Clear
1:55 AM 30.4 °F 25.6 °F 25.9 °F 83% 30.12 in 7.0 mi East 4.6 mph - N/A   Clear
2:15 AM 29.8 °F 23.9 °F 25.9 °F 85% 30.12 in 7.0 mi East 5.8 mph - N/A   Scattered Clouds
2:35 AM 29.3 °F 23.2 °F 25.7 °F 86% 30.11 in 5.0 mi East 5.8 mph - N/A   Clear
2:55 AM 31.5 °F 25.8 °F 27.0 °F 83% 30.11 in 7.0 mi ESE 5.8 mph - N/A   Clear
3:15 AM 30.9 °F 26.2 °F 26.4 °F 83% 30.11 in 7.0 mi ESE 4.6 mph - N/A   Clear
3:35 AM 29.8 °F 23.9 °F 25.7 °F 85% 30.10 in 7.0 mi ESE 5.8 mph - N/A   Clear
3:55 AM 30.2 °F 24.3 °F 26.2 °F 85% 30.09 in 7.0 mi ESE 5.8 mph - N/A   Clear
4:15 AM 29.3 °F - 25.7 °F 86% 30.09 in 5.0 mi Calm Calm - N/A   Clear
4:35 AM 28.8 °F 25.0 °F 25.3 °F 87% 30.10 in 5.0 mi East 3.5 mph - N/A   Clear
4:55 AM 27.5 °F 19.3 °F 24.6 °F 89% 30.09 in 5.0 mi East 8.1 mph - N/A   Clear
5:15 AM 28.4 °F 21.2 °F 25.0 °F 87% 30.09 in 5.0 mi ENE 6.9 mph - N/A   Clear
5:35 AM 28.2 °F 21.0 °F 24.8 °F 87% 30.09 in 5.0 mi ENE 6.9 mph - N/A   Clear
5:55 AM 28.2 °F 22.0 °F 24.8 °F 87% 30.08 in 5.0 mi East 5.8 mph - N/A   Clear
6:15 AM 27.9 °F 22.6 °F 24.6 °F 88% 30.08 in 5.0 mi East 4.6 mph - N/A   Clear
6:35 AM 28.0 °F 22.8 °F 24.8 °F 88% 30.09 in 5.0 mi East 4.6 mph - N/A   Clear
6:55 AM 27.5 °F - 24.3 °F 88% 30.09 in 5.0 mi Calm Calm - N/A   Clear
7:15 AM 27.5 °F - 24.4 °F 88% 30.09 in 5.0 mi Calm Calm - N/A   Clear
7:35 AM 27.5 °F - 24.6 °F 89% 30.10 in 5.0 mi Calm Calm - N/A   Clear
7:55 AM 29.3 °F 25.6 °F 25.7 °F 86% 30.09 in 5.0 mi East 3.5 mph - N/A   Clear
8:15 AM 31.1 °F 24.5 °F 27.0 °F 85% 30.08 in 5.0 mi East 6.9 mph - N/A   Clear
8:35 AM 32.0 °F 24.8 °F 27.7 °F 84% 30.07 in 5.0 mi East 8.1 mph - N/A   Haze
8:55 AM 32.9 °F 24.1 °F 28.6 °F 84% 30.08 in 5.0 mi SE 11.5 mph - N/A   Haze
9:15 AM 32.9 °F 21.6 °F 28.0 °F 82% 30.01 in 7.0 mi East 18.4 mph 24.2 mph N/A   Scattered Clouds
9:35 AM 34.3 °F 27.0 °F 28.6 °F 79% 30.05 in 7.0 mi ESE 9.2 mph - N/A   Scattered Clouds
9:55 AM 36.0 °F 33.3 °F 29.1 °F 76% 30.09 in 7.0 mi SW 3.5 mph - N/A   Clear
10:15 AM 38.1 °F 33.7 °F 29.8 °F 72% 30.10 in 7.0 mi SSE 5.8 mph - N/A   Clear
10:35 AM 37.4 °F 33.8 °F 29.1 °F 72% 30.09 in 10.0 mi SE 4.6 mph - N/A   Clear
10:55 AM 37.4 °F - 29.3 °F 73% 30.07 in 7.0 mi Calm Calm - N/A   Mostly Cloudy
11:15 AM 39.2 °F 37.0 °F 29.3 °F 68% 30.08 in 10.0 mi SE 3.5 mph - N/A   Scattered Clouds
11:35 AM 40.1 °F 36.1 °F 30.0 °F 67% 30.07 in 10.0 mi ESE 5.8 mph - N/A   Mostly Cloudy
11:55 AM 41.0 °F 33.5 °F 30.7 °F 67% 30.02 in 10.0 mi ENE 13.8 mph - N/A   Mostly Cloudy
12:15 PM 42.1 °F 36.6 °F 31.1 °F 65% 30.03 in 10.0 mi East 9.2 mph - N/A   Scattered Clouds
12:35 PM 43.7 °F 38.1 °F 31.8 °F 63% 30.02 in 10.0 mi ESE 10.4 mph - N/A   Scattered Clouds
12:55 PM 45.9 °F 40.4 °F 32.2 °F 59% 30.02 in 10.0 mi SE 11.5 mph - N/A   Clear
1:15 PM 47.3 °F - 32.2 °F 56% 30.01 in 10.0 mi SE 12.7 mph - N/A   Clear
1:35 PM 47.3 °F - 32.0 °F 55% 29.99 in 10.0 mi SE 11.5 mph - N/A   Scattered Clouds
1:55 PM 48.2 °F - 32.7 °F 55% 29.98 in 10.0 mi SE 10.4 mph - N/A   Mostly Cloudy
2:15 PM 51.3 °F - 33.4 °F 51% 29.97 in 10.0 mi SSE 11.5 mph - N/A   Scattered Clouds
2:35 PM 52.2 °F - 34.0 °F 50% 29.95 in 10.0 mi SE 12.7 mph - N/A   Clear
2:55 PM 53.4 °F - 33.8 °F 47% 29.95 in 10.0 mi SE 11.5 mph - N/A   Clear
3:15 PM 51.8 °F - 33.6 °F 50% 29.95 in 10.0 mi ESE 11.5 mph 19.6 mph N/A   Clear
3:35 PM 51.8 °F - 33.8 °F 50% 29.93 in 10.0 mi ESE 9.2 mph - N/A   Clear
3:55 PM 52.7 °F - 34.3 °F 50% 29.91 in 10.0 mi East 13.8 mph 18.4 mph N/A   Clear
4:15 PM 52.3 °F - 34.7 °F 51% 29.90 in 10.0 mi East 12.7 mph - N/A   Clear
4:35 PM 51.1 °F - 34.9 °F 54% 29.90 in 10.0 mi East 9.2 mph - N/A   Scattered Clouds
4:55 PM 51.1 °F - 35.8 °F 56% 29.88 in 10.0 mi East 8.1 mph - N/A   Mostly Cloudy
5:15 PM 53.6 °F - 36.9 °F 53% 29.88 in 10.0 mi SE 11.5 mph - N/A   Scattered Clouds
5:35 PM 53.6 °F - 37.2 °F 54% 29.88 in 10.0 mi SE 16.1 mph - N/A   Mostly Cloudy
5:55 PM 53.1 °F - 36.9 °F 54% 29.88 in 10.0 mi ESE 12.7 mph 19.6 mph N/A   Overcast
6:15 PM 52.0 °F - 37.0 °F 57% 29.87 in 10.0 mi ESE 12.7 mph - N/A   Overcast
6:35 PM 51.3 °F - 37.4 °F 59% 29.88 in 10.0 mi ESE 11.5 mph - N/A   Overcast
6:55 PM 50.4 °F - 37.4 °F 61% 29.86 in 10.0 mi East 10.4 mph - N/A   Overcast
7:15 PM 49.3 °F - 37.4 °F 64% 29.86 in 10.0 mi ESE 10.4 mph - N/A   Mostly Cloudy
7:35 PM 50.0 °F - 37.8 °F 63% 29.86 in 10.0 mi ESE 8.1 mph - N/A   Overcast
7:55 PM 49.1 °F - 37.8 °F 65% 29.86 in 10.0 mi East 9.2 mph - N/A   Overcast
8:15 PM 48.4 °F - 37.8 °F 67% 29.86 in 10.0 mi ESE 10.4 mph - N/A   Overcast
8:35 PM 49.1 °F - 38.8 °F 68% 29.87 in 10.0 mi ESE 9.2 mph - N/A   Overcast
8:55 PM 48.7 °F - 38.8 °F 69% 29.87 in 10.0 mi SE 11.5 mph - N/A   Overcast
9:15 PM 47.7 °F - 40.1 °F 75% 29.86 in 7.0 mi SE 12.7 mph - N/A Rain Light Rain
9:35 PM 47.5 °F - 40.1 °F 76% 29.86 in 10.0 mi ESE 16.1 mph - N/A Thunderstorm Thunderstorm
9:55 PM 46.9 °F - 39.6 °F 76% 29.86 in 7.0 mi ESE 13.8 mph - N/A   Overcast
10:15 PM 46.8 °F - 39.2 °F 75% 29.86 in 7.0 mi SE 11.5 mph - N/A   Overcast
10:35 PM 46.4 °F 41.1 °F 39.2 °F 76% 29.85 in 7.0 mi ESE 11.5 mph - N/A   Overcast
10:55 PM 45.7 °F 40.2 °F 38.7 °F 76% 29.84 in 7.0 mi ESE 11.5 mph 16.1 mph N/A   Overcast
11:15 PM 45.3 °F 39.0 °F 38.7 °F 78% 29.83 in 7.0 mi SE 13.8 mph - N/A   Overcast
11:35 PM 44.8 °F 38.3 °F 38.5 °F 79% 29.83 in 7.0 mi SE 13.8 mph - N/A   Overcast
11:55 PM 44.6 °F 38.4 °F 38.7 °F 80% 29.82 in 7.0 mi SE 12.7 mph - N/A   Overcast